Time,TemperatureF,DewpointF,PressureIn,WindDirection,WindDirectionDegrees,WindSpeedMPH,WindSpeedGustMPH,Humidity,HourlyPrecipIn,Conditions,Clouds,dailyrainin,SolarRadiationWatts/m^2,SoftwareType,DateUTC
2013-05-08 00:21:00,55.0,33.0,-100.00,ESE,123,4.0,7.0,43,0.00,,,0.00,0.000000,,2013-05-08 06:21:00,
2013-05-08 00:32:00,55.0,33.0,-100.00,ESE,123,4.0,7.0,43,0.00,,,0.00,0.000000,,2013-05-08 06:32:00,
2013-05-08 00:41:00,55.0,33.0,-100.00,ESE,123,4.0,7.0,43,0.00,,,0.00,0.000000,,2013-05-08 06:41:00,
2013-05-08 00:51:00,55.0,33.0,-100.00,ESE,123,4.0,7.0,43,0.00,,,0.00,0.000000,,2013-05-08 06:51:00,
2013-05-08 01:21:00,54.0,34.0,-100.00,SE,124,6.0,8.0,46,0.00,,,0.00,0.000000,,2013-05-08 07:21:00,
2013-05-08 01:31:00,54.0,34.0,-100.00,SE,124,6.0,8.0,46,0.00,,,0.00,0.000000,,2013-05-08 07:31:00,
2013-05-08 01:42:00,54.0,34.0,-100.00,SE,124,6.0,8.0,46,0.00,,,0.00,0.000000,,2013-05-08 07:42:00,
2013-05-08 01:52:00,54.0,34.0,-100.00,SE,124,6.0,8.0,46,0.00,,,0.00,0.000000,,2013-05-08 07:52:00,
2013-05-08 02:21:00,55.0,37.0,-100.00,NNW,347,4.0,12.0,51,0.00,,,0.00,0.000000,,2013-05-08 08:21:00,
2013-05-08 02:31:00,55.0,37.0,-100.00,NNW,347,4.0,12.0,51,0.00,,,0.00,0.000000,,2013-05-08 08:31:00,
2013-05-08 02:42:00,55.0,37.0,-100.00,NNW,347,4.0,12.0,51,0.00,,,0.00,0.000000,,2013-05-08 08:42:00,
2013-05-08 02:51:00,55.0,37.0,-100.00,NNW,347,4.0,12.0,51,0.00,,,0.00,0.000000,,2013-05-08 08:51:00,
2013-05-08 03:21:00,51.0,32.0,-100.00,NNW,340,8.0,11.0,48,0.00,,,0.00,0.000000,,2013-05-08 09:21:00,
2013-05-08 03:32:00,51.0,32.0,-100.00,NNW,340,8.0,11.0,48,0.00,,,0.00,0.000000,,2013-05-08 09:32:00,
2013-05-08 03:42:00,51.0,32.0,-100.00,NNW,340,8.0,11.0,48,0.00,,,0.00,0.000000,,2013-05-08 09:42:00,
2013-05-08 03:52:00,51.0,32.0,-100.00,NNW,340,8.0,11.0,48,0.00,,,0.00,0.000000,,2013-05-08 09:52:00,
2013-05-08 04:33:00,50.0,37.0,-100.00,NNW,344,7.0,12.0,61,0.00,,,0.00,0.000000,,2013-05-08 10:33:00,
2013-05-08 04:42:00,50.0,37.0,-100.00,NNW,344,7.0,12.0,61,0.00,,,0.00,0.000000,,2013-05-08 10:42:00,
2013-05-08 04:52:00,50.0,37.0,-100.00,NNW,344,7.0,12.0,61,0.00,,,0.00,0.000000,,2013-05-08 10:52:00,
2013-05-08 05:22:00,48.0,38.0,-100.00,NNW,328,5.0,8.0,67,0.00,,,0.00,0.000000,,2013-05-08 11:22:00,
2013-05-08 05:32:00,48.0,38.0,-100.00,NNW,328,5.0,8.0,67,0.00,,,0.00,0.000000,,2013-05-08 11:32:00,
2013-05-08 05:42:00,48.0,38.0,-100.00,NNW,328,5.0,8.0,67,0.00,,,0.00,0.000000,,2013-05-08 11:42:00,
2013-05-08 05:52:00,48.0,38.0,-100.00,NNW,328,5.0,8.0,67,0.00,,,0.00,0.000000,,2013-05-08 11:52:00,
2013-05-08 06:21:00,48.0,38.0,-100.00,NW,321,8.0,14.0,69,0.00,,,0.00,2.000000,,2013-05-08 12:21:00,
2013-05-08 06:31:00,48.0,38.0,-100.00,NW,321,8.0,14.0,69,0.00,,,0.00,2.000000,,2013-05-08 12:31:00,
2013-05-08 06:41:00,48.0,38.0,-100.00,NW,321,8.0,14.0,69,0.00,,,0.00,2.000000,,2013-05-08 12:41:00,
2013-05-08 06:51:00,48.0,38.0,-100.00,NW,321,8.0,14.0,69,0.00,,,0.00,2.000000,,2013-05-08 12:51:00,
2013-05-08 07:32:00,50.0,38.0,-100.00,NW,324,10.0,15.0,63,0.00,,,0.00,89.000000,,2013-05-08 13:32:00,
2013-05-08 07:42:00,50.0,38.0,-100.00,NW,324,10.0,15.0,63,0.00,,,0.00,89.000000,,2013-05-08 13:42:00,
2013-05-08 07:52:00,50.0,38.0,-100.00,NW,324,10.0,15.0,63,0.00,,,0.00,89.000000,,2013-05-08 13:52:00,
2013-05-08 08:21:00,52.0,38.0,-100.00,North,349,8.0,15.0,58,0.00,,,0.00,257.000000,,2013-05-08 14:21:00,
2013-05-08 08:31:00,52.0,38.0,-100.00,North,349,8.0,15.0,58,0.00,,,0.00,257.000000,,2013-05-08 14:31:00,
2013-05-08 08:42:00,52.0,38.0,-100.00,North,349,8.0,15.0,58,0.00,,,0.00,257.000000,,2013-05-08 14:42:00,
2013-05-08 08:51:00,52.0,38.0,-100.00,North,349,8.0,15.0,58,0.00,,,0.00,257.000000,,2013-05-08 14:51:00,
2013-05-08 09:21:00,54.0,38.0,-100.00,NNW,329,7.0,14.0,55,0.00,,,0.00,427.000000,,2013-05-08 15:21:00,
2013-05-08 09:33:00,54.0,38.0,-100.00,NNW,329,7.0,14.0,55,0.00,,,0.00,427.000000,,2013-05-08 15:33:00,
2013-05-08 09:42:00,54.0,38.0,-100.00,NNW,329,7.0,14.0,55,0.00,,,0.00,427.000000,,2013-05-08 15:42:00,
2013-05-08 09:52:00,54.0,38.0,-100.00,NNW,329,7.0,14.0,55,0.00,,,0.00,427.000000,,2013-05-08 15:52:00,
2013-05-08 10:23:00,57.0,39.0,-100.00,NNW,335,6.0,13.0,51,0.00,,,-99.99,598.000000,,2013-05-08 16:23:00,
2013-05-08 10:33:00,57.0,39.0,-100.00,NNW,335,6.0,13.0,51,0.00,,,-99.99,598.000000,,2013-05-08 16:33:00,
2013-05-08 10:42:00,57.0,39.0,-100.00,NNW,335,6.0,13.0,51,0.00,,,-99.99,598.000000,,2013-05-08 16:42:00,
2013-05-08 10:52:00,57.0,39.0,-100.00,NNW,335,6.0,13.0,51,0.00,,,-99.99,598.000000,,2013-05-08 16:52:00,
2013-05-08 11:22:00,60.0,39.0,-100.00,NNW,328,9.0,14.0,46,0.00,,,-99.99,741.000000,,2013-05-08 17:22:00,
2013-05-08 11:31:00,60.0,39.0,-100.00,NNW,328,9.0,14.0,46,0.00,,,-99.99,741.000000,,2013-05-08 17:31:00,
2013-05-08 11:41:00,60.0,39.0,-100.00,NNW,328,9.0,14.0,46,0.00,,,-99.99,741.000000,,2013-05-08 17:41:00,
2013-05-08 11:52:00,60.0,39.0,-100.00,NNW,328,9.0,14.0,46,0.00,,,-99.99,741.000000,,2013-05-08 17:52:00,
2013-05-08 12:31:00,62.0,39.0,-100.00,NNW,340,8.0,13.0,42,0.00,,,0.00,843.000000,,2013-05-08 18:31:00,
2013-05-08 12:42:00,62.0,39.0,-100.00,NNW,340,8.0,13.0,42,0.00,,,0.00,843.000000,,2013-05-08 18:42:00,
2013-05-08 12:51:00,62.0,39.0,-100.00,NNW,340,8.0,13.0,42,0.00,,,0.00,843.000000,,2013-05-08 18:51:00,
2013-05-08 13:21:00,65.0,39.0,-100.00,NW,324,9.0,15.0,39,0.00,,,0.00,897.000000,,2013-05-08 19:21:00,
2013-05-08 13:32:00,65.0,39.0,-100.00,NW,324,9.0,15.0,39,0.00,,,0.00,897.000000,,2013-05-08 19:32:00,
2013-05-08 13:41:00,65.0,39.0,-100.00,NW,324,9.0,15.0,39,0.00,,,0.00,897.000000,,2013-05-08 19:41:00,
2013-05-08 13:52:00,65.0,39.0,-100.00,NW,324,9.0,15.0,39,0.00,,,0.00,897.000000,,2013-05-08 19:52:00,
2013-05-08 14:22:00,69.0,40.0,-100.00,NNE,24,6.0,13.0,35,0.00,,,0.00,897.000000,,2013-05-08 20:22:00,
2013-05-08 14:32:00,69.0,40.0,-100.00,NNE,24,6.0,13.0,35,0.00,,,0.00,897.000000,,2013-05-08 20:32:00,
2013-05-08 14:42:00,69.0,40.0,-100.00,NNE,24,6.0,13.0,35,0.00,,,0.00,897.000000,,2013-05-08 20:42:00,
2013-05-08 14:51:00,69.0,40.0,-100.00,NNE,24,6.0,13.0,35,0.00,,,0.00,897.000000,,2013-05-08 20:51:00,
2013-05-08 15:33:00,70.0,40.0,-100.00,NNE,12,8.0,13.0,34,0.00,,,0.00,766.000000,,2013-05-08 21:33:00,
2013-05-08 15:43:00,70.0,40.0,-100.00,NNE,12,8.0,13.0,34,0.00,,,0.00,766.000000,,2013-05-08 21:43:00,
2013-05-08 15:52:00,70.0,40.0,-100.00,NNE,12,8.0,13.0,34,0.00,,,0.00,766.000000,,2013-05-08 21:52:00,
2013-05-08 16:22:00,72.0,38.0,-100.00,NNW,337,5.0,13.0,29,0.00,,,0.00,747.000000,,2013-05-08 22:22:00,
2013-05-08 16:33:00,72.0,38.0,-100.00,NNW,337,5.0,13.0,29,0.00,,,0.00,747.000000,,2013-05-08 22:33:00,
2013-05-08 16:42:00,72.0,38.0,-100.00,NNW,337,5.0,13.0,29,0.00,,,0.00,747.000000,,2013-05-08 22:42:00,
2013-05-08 16:52:00,72.0,38.0,-100.00,NNW,337,5.0,13.0,29,0.00,,,0.00,747.000000,,2013-05-08 22:52:00,
2013-05-08 17:22:00,72.0,38.0,-100.00,NNE,21,7.0,12.0,29,0.00,,,0.00,605.000000,,2013-05-08 23:22:00,
2013-05-08 17:32:00,72.0,38.0,-100.00,NNE,21,7.0,12.0,29,0.00,,,0.00,605.000000,,2013-05-08 23:32:00,
2013-05-08 17:42:00,72.0,38.0,-100.00,NNE,21,7.0,12.0,29,0.00,,,0.00,605.000000,,2013-05-08 23:42:00,
2013-05-08 17:52:00,72.0,38.0,-100.00,NNE,21,7.0,12.0,29,0.00,,,0.00,605.000000,,2013-05-08 23:52:00,
2013-05-08 18:32:00,73.0,36.0,-100.00,NE,43,5.0,11.0,26,0.00,,,0.00,437.000000,,2013-05-09 00:32:00,
2013-05-08 18:42:00,73.0,36.0,-100.00,NE,43,5.0,11.0,26,0.00,,,0.00,437.000000,,2013-05-09 00:42:00,
2013-05-08 18:51:00,73.0,36.0,-100.00,NE,43,5.0,11.0,26,0.00,,,0.00,437.000000,,2013-05-09 00:51:00,
2013-05-08 19:22:00,72.0,35.0,-100.00,NE,55,5.0,11.0,26,0.00,,,0.00,258.000000,,2013-05-09 01:22:00,
2013-05-08 19:32:00,72.0,35.0,-100.00,NE,55,5.0,11.0,26,0.00,,,0.00,258.000000,,2013-05-09 01:32:00,
2013-05-08 19:42:00,72.0,35.0,-100.00,NE,55,5.0,11.0,26,0.00,,,0.00,258.000000,,2013-05-09 01:42:00,
2013-05-08 19:52:00,72.0,35.0,-100.00,NE,55,5.0,11.0,26,0.00,,,0.00,258.000000,,2013-05-09 01:52:00,
2013-05-08 20:32:00,67.0,37.0,-100.00,NNE,26,4.0,9.0,33,0.00,,,0.00,94.000000,,2013-05-09 02:32:00,
2013-05-08 20:41:00,67.0,37.0,-100.00,NNE,26,4.0,9.0,33,0.00,,,0.00,94.000000,,2013-05-09 02:41:00,
2013-05-08 20:52:00,67.0,37.0,-100.00,NNE,26,4.0,9.0,33,0.00,,,0.00,94.000000,,2013-05-09 02:52:00,
2013-05-08 21:21:00,62.0,37.0,-100.00,NE,52,4.0,7.0,40,0.00,,,0.00,6.000000,,2013-05-09 03:21:00,
2013-05-08 21:33:00,62.0,37.0,-100.00,NE,52,4.0,7.0,40,0.00,,,0.00,6.000000,,2013-05-09 03:33:00,
2013-05-08 21:43:00,62.0,37.0,-100.00,NE,52,4.0,7.0,40,0.00,,,0.00,6.000000,,2013-05-09 03:43:00,
2013-05-08 21:52:00,62.0,37.0,-100.00,NE,52,4.0,7.0,40,0.00,,,0.00,6.000000,,2013-05-09 03:52:00,
2013-05-08 22:23:00,60.0,39.0,-100.00,ENE,71,5.0,7.0,45,0.00,,,0.00,0.000000,,2013-05-09 04:23:00,
2013-05-08 22:33:00,60.0,39.0,-100.00,ENE,71,5.0,7.0,45,0.00,,,0.00,0.000000,,2013-05-09 04:33:00,
2013-05-08 22:43:00,60.0,39.0,-100.00,ENE,71,5.0,7.0,45,0.00,,,0.00,0.000000,,2013-05-09 04:43:00,
2013-05-08 22:52:00,60.0,39.0,-100.00,ENE,71,5.0,7.0,45,0.00,,,0.00,0.000000,,2013-05-09 04:52:00,
2013-05-08 23:22:00,55.0,37.0,-100.00,SE,136,3.0,6.0,51,0.00,,,0.00,0.000000,,2013-05-09 05:22:00,
2013-05-08 23:32:00,55.0,37.0,-100.00,SE,136,3.0,6.0,51,0.00,,,0.00,0.000000,,2013-05-09 05:32:00,
2013-05-08 23:42:00,55.0,37.0,-100.00,SE,136,3.0,6.0,51,0.00,,,0.00,0.000000,,2013-05-09 05:42:00,
2013-05-08 23:51:00,55.0,37.0,-100.00,SE,136,3.0,6.0,51,0.00,,,0.00,0.000000,,2013-05-09 05:51:00,